Location: Salisbury
(38.3600°N, 75.6000°W)
Time: 03:56:12
(UTC-04:00)

Daily predictions for brighter satellites

Satellite Brightness Start Highest point End
(mag) Time Altitude Azimuth Time Altitude Azimuth Time Altitude Azimuth
Atlas Centaur 2 4.1 00:01:25 10° WSW 00:05:19 29° SW 00:05:19 29° SW
Nadezhda 4 Rocket 4.2 00:18:32 60° W 00:18:57 62° W 00:25:14 10° N
Cosmos 1943 Rocket 2.4 00:15:01 10° NNW 00:19:48 67° NNW 00:19:48 67° NNW
Lacrosse 4 Rocket 3.3 00:22:28 26° NW 00:22:28 26° NW 00:25:13 10° N
Cosmos 1953 4.4 00:18:39 10° NNW 00:20:33 23° NW 00:20:33 23° NW
Cosmos 1140 Rocket 4.0 00:30:00 57° NNW 00:30:00 57° NNW 00:34:27 10° NNE
Cosmos 2369 Rocket 4.1 00:39:55 10° NW 00:42:56 19° W 00:42:56 19° W
Cosmos 1656 Rocket 4.0 00:38:18 10° NNW 00:43:21 64° NNE 00:43:21 64° NNE
CZ-2C R/B 3.7 00:44:57 10° NNE 00:49:08 38° ENE 00:49:08 38° ENE
Meteor 1-16 Rocket 4.5 00:46:53 10° N 00:51:41 66° NNE 00:51:41 66° NNE
CZ-4B R/B 4.3 00:57:18 17° NNW 00:57:18 17° NNW 00:58:19 10° NNW
COSMOS 2406 3.8 00:55:40 49° WNW 00:55:40 49° WNW 01:01:11 10° NNE
NOSS 3-2 (A) 4.0 00:57:43 49° E 00:57:43 49° E 01:02:56 10° NE
ATLAS 3B R/B 4.3 00:52:48 11° WSW 00:59:14 32° NW 01:05:50 10° NNE
Cosmos 2026 Rocket 4.0 00:59:46 71° NW 00:59:46 71° NW 01:05:29 10° N
Meteor 1-24 Rocket 4.2 01:27:05 58° WNW 01:27:05 58° WNW 01:32:40 10° N
Cosmos 2082 Rocket 3.4 01:29:53 32° E 01:29:53 32° E 01:34:01 10° NE
USA 215 3.5 01:24:09 10° NE 01:29:53 52° ESE 01:29:53 52° ESE
Cosmos 1553 Rocket 4.2 01:35:35 10° NNW 01:41:27 58° W 01:41:27 58° W
Cosmos 1833 Rocket 3.7 01:47:33 36° E 01:47:33 36° E 01:52:09 10° NE
Meteor 1-21 Rocket 4.3 01:48:32 78° NE 01:48:32 78° NE 01:53:55 10° N
CZ-4C R/B 2.3 01:48:51 67° NNW 01:48:51 67° NNW 01:54:24 10° NNE
Cosmos 2315 Rocket 4.3 01:43:08 10° N 01:49:23 57° E 01:50:07 54° ESE
Cosmos 841 Rocket 4.2 01:44:24 10° N 01:49:29 48° ENE 01:49:35 48° ENE
NOSS 3-3 (A) 4.4 01:46:07 10° NNW 01:53:40 85° ENE 01:55:46 54° SE
NOSS 3-3 (C) 4.4 01:46:14 10° NNW 01:53:46 84° ENE 01:55:57 53° SE
Timation 2 Rocket 4.1 01:57:26 72° WSW 01:58:04 79° WNW 02:04:57 10° NNE
Cosmos 2344 3.5 01:58:28 64° SSW 01:59:51 82° ESE 02:08:26 10° NE
NOSS 3-2 (C) 3.5 01:59:33 63° W 02:00:04 66° NW 02:06:41 10° NNE
Cosmos 1818 3.6 02:00:34 10° NNW 02:05:51 74° NE 02:05:51 74° NE
CENTAUR R/B 3.3 02:10:44 36° ESE 02:10:59 36° ESE 02:16:54 10° NE
Cosmos 2266 Rocket 4.2 02:11:04 56° W 02:11:21 57° W 02:17:40 10° N
H-2A R/B 3.6 02:14:43 29° ESE 02:14:43 29° ESE 02:22:12 10° E
Lacrosse 5 4.3 02:16:49 10° NNW 02:20:39 21° NNE 02:24:28 10° E
Cosmos 1726 4.3 02:22:24 10° NNE 02:25:11 22° ENE 02:25:11 22° ENE
PSLV R/B 4.0 02:21:12 10° NNE 02:25:11 65° NNE 02:25:11 65° NNE
Cosmos 2369 4.0 02:21:16 10° NNW 02:26:02 54° WNW 02:26:02 54° WNW
IRAS Rocket 4.1 02:21:49 10° NNE 02:27:19 75° ESE 02:27:34 74° SE
Cosmos 1656 3.8 02:22:11 10° NNW 02:27:53 71° ENE 02:28:57 57° SE
CZ-2C R/B 4.0 02:29:35 37° WNW 02:29:35 37° WNW 02:33:50 10° NNW
CZ-2C R/B 4.1 02:25:47 10° NNW 02:30:11 25° WNW 02:30:39 24° WNW
Cosmos 1867 3.9 02:37:24 51° WNW 02:37:50 52° NW 02:43:12 10° NNE
IRS-P3 4.0 02:35:24 10° NNE 02:40:45 78° ESE 02:41:12 72° SSE
Cosmos 1151 Rocket 4.3 02:36:56 10° NNW 02:39:29 31° NW 02:39:29 31° NW
Genesis I 4.2 02:37:08 10° NNW 02:40:38 46° NE 02:40:38 46° NE
Cosmos 1437 Rocket 4.2 02:38:59 10° NNW 02:41:17 32° NNW 02:41:17 32° NNW
H-2A ROCKET BODY 4.3 02:28:58 10° WSW 02:47:55 - ESE 02:29:35 11° WSW
Aureole 1 Rocket 3.5 02:43:29 10° NNW 02:47:58 74° ENE 02:49:08 54° SE
ASTEX 1 4.2 02:46:57 10° N 02:51:17 38° WNW 02:51:17 38° WNW
Resurs 1-4 Rocket 4.2 02:49:10 10° NE 02:52:54 19° E 02:56:04 12° SE
Sich 1 3.1 02:53:35 73° E 02:53:35 73° E 02:57:53 10° N
Cosmos 1763 Rocket 4.5 02:50:36 10° NW 02:54:20 33° WNW 02:54:20 33° WNW
Cosmos 2151 4.2 02:58:18 32° NW 02:58:18 32° NW 03:01:26 10° NNW
USA 32 4.5 02:53:03 10° NNW 02:57:55 46° W 02:57:55 46° W
Cosmos 1980 Rocket 2.6 02:54:29 10° NNW 03:00:03 60° ENE 03:04:06 19° SE
SL-08 R/B 4.4 03:02:43 54° SW 03:04:04 71° W 03:10:11 10° N
BREEZE-M DEB (TANK) 2.5 03:08:59 61° E 03:08:59 61° E 03:14:12 10° ENE
Cosmos 1300 3.3 03:04:49 10° NNW 03:07:48 49° NW 03:07:48 49° NW
Cosmos 371 Rocket 4.4 03:06:06 10° N 03:10:43 42° ENE 03:15:04 11° SE
Cosmos 540 Rocket 3.3 03:06:12 10° NNW 03:11:24 84° WSW 03:12:41 52° S
Cosmos 2058 3.7 03:12:15 39° WNW 03:12:15 39° WNW 03:15:44 10° N
Cosmos 2082 Rocket 3.2 03:11:43 29° W 03:13:01 32° WNW 03:18:04 10° N
USA 215 4.0 03:07:18 10° NE 03:13:25 44° NNW 03:17:12 23° W
Cosmos 2242 Rocket 3.4 03:10:18 10° N 03:14:45 89° W 03:15:14 71° S
ERS-2 3.4 03:13:34 10° N 03:16:18 30° NW 03:16:18 30° NW
AQUA 3.9 03:17:14 10° N 03:21:55 59° WNW 03:22:38 52° WSW
Meteor 1-27 4.4 03:16:40 10° NNW 03:22:24 59° W 03:23:58 45° SSW
Cosmos 1697 Rocket 2.8 03:16:56 10° NNW 03:22:26 53° WSW 03:23:25 47° SW
NPP 4.0 03:19:02 10° N 03:24:13 50° WNW 03:25:30 41° WSW
SEDSat Delta rocket 4.5 03:23:47 37° S 03:24:49 40° SSE 03:30:50 10° ESE
ATLAS 2A CENTAUR R/B 4.4 03:21:16 22° S 03:25:20 29° SE 03:49:56 10° E
SL-16 R/B 3.4 03:19:40 10° SE 03:25:39 51° ENE 03:31:41 10° N
CZ-2D R/B 3.2 03:21:03 10° NNE 03:25:54 38° E 03:29:13 19° SSE
H-2A R/B 4.2 02:24:31 10° W 03:29:42 52° SSW 03:35:57 10° ESE
Abrixas 4.0 03:29:48 31° NNW 03:29:51 31° NNW 03:32:40 10° NE
SL-14 R/B 4.0 03:30:30 38° WNW 03:30:30 38° WNW 03:33:49 10° N
Cosmos 1833 Rocket 3.8 03:29:15 25° W 03:30:57 30° WNW 03:35:52 10° N
Cosmos 2360 4.3 03:26:07 10° NNW 03:31:51 77° ENE 03:37:33 10° SSE
Spot 4 Rocket 3.9 03:29:27 10° N 03:34:38 82° WNW 03:36:31 40° SSW
Cosmos 1455 2.8 03:32:48 10° N 03:36:32 52° E 03:38:21 26° SE
CZ-4C R/B 4.5 03:35:12 10° WNW 03:38:18 15° NNW 03:41:34 10° N
Cosmos 968 Rocket 3.4 03:38:14 42° SSW 03:39:57 76° WNW 03:45:06 10° NNE
Cosmos 1538 Rocket 3.9 03:37:46 10° NNW 03:43:01 88° WSW 03:47:27 15° SSE
Cosmos 1703 3.6 03:43:37 46° W 03:44:01 48° W 03:47:53 10° N
CZ-3 Stage 3 3.4 03:32:05 10° WSW 03:45:16 42° SSW 03:48:50 10° ESE
Cosmos 1633 Rocket 4.1 03:44:54 29° W 03:45:19 29° WNW 03:49:13 10° NNW
SL-08 R/B 4.2 03:46:26 30° W 03:46:36 30° W 03:50:53 10° NW
Atlas Centaur 2 4.1 03:50:24 18° S 03:50:24 18° S 03:52:57 10° SSE
ATLAS 5 CENTAUR R/B 3.5 03:45:09 15° SSE 03:48:07 25° ESE 03:52:14 10° ENE
Lacrosse 5 rocket 4.0 03:45:28 10° NNW 03:49:05 24° NE 03:52:49 10° E
ADEOS 4.0 03:45:44 10° N 03:50:44 47° WNW 03:52:43 32° WSW
FALCON 9 R/B 2.4 03:53:26 17° ESE 03:53:26 17° ESE 03:54:13 10° ESE
EO 1 Del DPAF 3.1 03:52:36 32° S 03:54:19 77° WSW 03:58:14 10° NNW
SL-16 R/B 2.6 03:50:25 10° NNW 03:56:05 65° ENE 04:01:42 10° SSE
Cosmos 332 Rocket 4.2 03:52:57 10° NNW 03:57:26 40° WSW 03:58:49 32° SW
Cosmos 1470 Rocket 4.1 03:59:12 33° WSW 04:00:31 42° WNW 04:04:45 10° N
Cosmos 1726 3.9 03:57:54 10° NW 03:59:50 18° WNW 03:59:50 18° WNW
CENTAUR R/B 3.3 03:57:54 22° WSW 04:01:29 40° NW 04:07:56 10° NNE
Meteor 1-4 Rocket 2.7 03:58:44 10° NNW 04:02:25 58° W 04:03:48 34° SSW
Cosmos 1777 Rocket 4.0 03:59:39 28° SSW 04:02:30 78° WNW 04:07:49 10° NNE
USA 161 3.9 04:05:41 10° NW 04:05:41 10° NW 04:05:41 10° NW
Lacrosse 5 1.7 03:59:04 10° NW 04:04:09 82° SW 04:09:12 10° SE
Meteor 2-10 4.2 04:00:22 10° NNW 04:05:23 51° W 04:08:38 22° SSW
Cosmos 1933 Rocket 4.2 04:04:16 30° WSW 04:05:35 37° WNW 04:09:41 10° N
Cosmos 1709 Rocket 4.1 04:02:08 24° SSW 04:06:02 61° W 04:12:16 10° N
IRS-1D 3.6 04:01:19 10° N 04:06:38 68° WNW 04:09:57 23° SSW
UNK 3.6 04:03:54 13° S 04:07:59 80° WSW 04:12:35 10° NNW
Cosmos 1271 Rocket 3.0 04:06:04 10° NNW 04:09:43 45° W 04:11:02 31° SW
Cosmos 2322 Rocket 2.1 04:05:47 10° NNW 04:11:27 87° WSW 04:17:03 10° SSE
CRYOSAT 2 4.3 04:07:16 10° N 04:12:10 89° E 04:16:17 15° S
ARIANE 5 R/B 2.8 04:07:54 10° N 04:12:52 51° WNW 04:15:46 23° SW
BREEZE-M DEB (TANK) 4.4 04:11:44 10° NW 04:14:09 18° N 04:15:53 10° ENE
SME Rocket 4.5 04:06:31 10° SSE 04:14:16 68° ENE 04:19:22 10° N
Cosmos 1626 2.8 04:15:54 28° WSW 04:17:09 37° W 04:20:41 10° N
Cosmos 773 Rocket 3.9 04:12:01 10° NNW 04:17:10 77° WSW 04:22:17 10° S
BREEZE-M TANK 3.8 04:14:56 10° WNW 04:18:17 25° N 04:20:27 10° NE
CZ-2D R/B 3.6 04:15:27 10° NNE 04:19:40 70° E 04:23:12 13° S
Okean O Rocket 2.1 04:15:28 10° NNE 04:19:52 59° E 04:24:12 10° S
Cosmos 2292 Rocket 3.5 04:23:56 28° WSW 04:24:44 33° W 04:27:37 10° NNW
Resurs 1-4 Rocket 2.5 04:27:52 10° N 04:32:59 49° WNW 04:37:09 15° SW
Okean-O 4.4 04:34:49 10° NE 04:38:47 31° E 04:42:44 10° SSE
Cosmos 2221 Rocket 3.6 04:36:00 10° NNW 04:40:27 63° W 04:44:54 10° S
Okean 1-7 3.1 04:37:59 10° N 04:42:24 85° E 04:46:46 10° S
Cosmos 1980 Rocket 3.7 04:40:00 10° WNW 04:43:29 17° W 04:45:46 14° SW
OAO 3 Rocket 3.4 04:40:13 15° WSW 04:43:58 55° S 04:48:37 10° E
Cosmos 2360 Rocket 2.8 04:39:17 10° NNW 04:44:52 63° ENE 04:50:26 10° SSE
CZ-4B R/B 3.3 04:39:36 10° NNE 04:45:03 84° ESE 04:50:35 10° SSW
In-Cosmos 22 Rocket 4.4 04:42:21 10° S 04:47:37 70° E 04:52:56 10° NNE
Cosmos 2219 3.9 04:43:19 10° S 04:48:51 54° ESE 04:54:26 10° NNE
Cosmos 2322 4.1 04:44:30 10° NNW 04:50:14 69° ENE 04:55:56 10° SSE
Cosmos 2112 Rocket 3.9 04:45:34 10° NNW 04:50:45 72° WSW 04:55:55 10° S
GPS 2-05 Rocket1 3.9 04:50:55 14° SW 04:53:24 32° SSE 04:56:36 10° E
MOZ.5/SAFIR/RUBIN 5/SL-8 3.9 04:49:55 10° SSE 04:54:34 85° ENE 04:59:17 10° N
CZ-4B R/B 2.9 04:52:33 10° NNE 04:56:30 89° ESE 05:00:39 10° SSW
PAYLOAD B 4.2 04:52:38 10° N 04:58:08 73° WNW 05:03:38 10° SSW
CZ-4B DEB 4.2 04:54:33 10° NNE 05:00:04 82° WNW 05:05:34 10° SSW
ISS -0.8 05:00:40 10° NNW 05:03:25 25° NNE 05:06:11 10° E
Cosmos 1869 Rocket 4.4 05:01:27 10° SW 05:05:24 33° WNW 05:09:25 10° NNW
CZ-2D R/B 3.3 05:01:34 10° NNW 05:05:46 25° WNW 05:09:59 10° WSW
UNKNOWN OBJECT B 4.3 05:03:15 10° NNW 05:06:06 21° WNW 05:08:58 10° WSW
SL-16 R/B 3.6 05:04:35 10° SSW 05:09:30 24° W 05:14:27 10° NW
PSLV R/B 4.4 05:06:30 10° NNE 05:10:50 55° E 05:15:06 10° S
SEDSat Delta rocket 4.4 05:04:42 10° WSW 05:11:03 46° S 05:16:54 10° ESE
Cosmos 2298 Rocket 4.1 05:06:17 10° SSW 05:11:35 72° WNW 05:16:56 10° NNE
Cosmos 2154 Rocket 4.1 05:05:53 10° S 05:12:12 87° W 05:18:35 10° N
Nadezhda 3 Rocket 4.1 05:07:49 10° N 05:14:01 87° E 05:20:10 10° S
Cosmos 304 Rocket 4.2 05:10:13 10° NW 05:14:43 40° WSW 05:19:11 10° S
COSMOS 2428 3.6 05:10:57 10° NNW 05:16:33 56° ENE 05:22:06 10° SE
